User: anonymous   Login
Location: Caltech
(34.1382°N, 118.1253°W)
Time: 01:13:39
(UTC-08:00)
Language:

Oscar 11 - Orbit

View from above orbital plane
View from above orbital plane
View from above satellite
View from above satellite

Ground track
Ground track

The orbit data is extracted from the following two-line orbital elements,

1 14781U 84021B   17023.69742479  .00000088  00000-0  17204-4 0  9991
2 14781  97.7194  74.5711 0007484 320.8327  39.2345 14.82850305768938
Epoch (UTC): 23 January 2017 16:44:17
Eccentricity: 0.0007484
inclination: 97.7194°
perigee height: 615 km
apogee height: 625 km
right ascension of ascending node: 74.5711°
argument of perigee: 320.8327°
revolutions per day: 14.82850305
mean anomaly at epoch: 39.2345°
orbit number at epoch: 76893

The dashed part of the orbit path shows where the satellite is in the earth's shadow,  

DLR